Location: Orangeville
(43.9200°N, 80.0943°W)
Time: 16:59:33
(UTC-05:00)

Envisat - Visible Passes

Search period start: 01 December 2021 00:00
Search period end: 11 December 2021 00:00
Orbit: 764 x 766 km, 98.2° (Epoch: 01 December)

Date Brightness Start Highest point End Pass type
(mag) Time Alt. Az. Time Alt. Az. Time Alt. Az.
01 Dec 5.7 04:08:42 10° NE 04:11:51 16° E 04:14:58 10° SE visible
01 Dec 2.9 05:46:17 10° N 05:51:19 64° WNW 05:56:19 10° SSW visible
02 Dec 3.5 05:09:25 10° NNE 05:14:28 60° E 05:19:28 10° S visible
02 Dec 4.3 06:49:31 10° NNW 06:53:00 19° WNW 06:56:30 10° WSW visible
02 Dec 6.3 18:08:29 10° WSW 18:09:56 11° W 18:11:23 10° WNW visible
03 Dec 4.9 04:33:05 10° NE 04:37:25 28° E 04:41:43 10° SSE visible
03 Dec 3.4 06:11:49 10° N 06:16:30 38° WNW 06:21:08 10° SW visible
03 Dec 5.5 17:28:31 10° SSW 17:32:39 25° W 17:36:48 10° NW visible
04 Dec 5.9 03:57:58 10° ENE 04:00:09 13° E 04:02:20 10° ESE visible
04 Dec 2.8 05:34:41 10° N 05:39:46 80° WNW 05:44:51 10° SSW visible
05 Dec 3.9 04:57:57 10° NNE 05:02:52 47° E 05:07:45 10° S visible
05 Dec 4.0 06:37:38 10° NNW 06:41:35 23° WNW 06:45:31 10° WSW visible
05 Dec 6.0 17:55:29 10° WSW 17:58:14 14° W 18:00:58 10° NW visible
06 Dec 5.3 04:21:50 10° NE 04:25:46 22° E 04:29:39 10° SE visible
06 Dec 3.2 06:00:08 10° N 06:05:00 47° WNW 06:09:51 10° SW visible
06 Dec 5.1 17:16:32 10° SSW 17:21:00 31° W 17:25:30 10° NNW visible
07 Dec 3.0 05:23:07 10° NNE 05:28:14 81° ESE 05:33:18 10° SSW visible
07 Dec 4.5 07:03:53 10° NNW 07:06:34 15° WNW 07:09:14 10° W visible
08 Dec 4.4 04:46:32 10° NNE 04:51:15 37° E 04:55:56 10° SSE visible
08 Dec 3.8 06:25:49 10° N 06:30:08 29° WNW 06:34:26 10° SW visible
08 Dec 5.8 17:43:03 10° SW 17:46:32 18° W 17:50:02 10° NW visible
09 Dec 5.6 04:10:44 10° NE 04:14:05 17° E 04:17:25 10° SE visible
09 Dec 2.9 05:48:29 10° N 05:53:30 59° WNW 05:58:27 10° SSW visible
10 Dec 3.3 05:11:35 10° NNE 05:16:39 65° ESE 05:21:41 10° S visible
10 Dec 4.3 06:51:49 10° NNW 06:55:09 18° WNW 06:58:29 10° WSW visible
10 Dec 6.5 18:11:35 10° W 18:12:10 10° W 18:12:46 10° W visible
